Tracking 17784 objects as of 23-July-2016
HD Live streaming from Space Station
objects crossing your sky now

INTELSAT 501

Track INTELSAT 501 now!
INTELSAT 501 is classified as:


NORAD ID: 12474
Int'l Code: 1981-050A
Perigee: 36,161.4 km
Apogee: 36,229.8 km
Inclination: 15.2 °
Period: 1,456.7 minutes
Semi major axis: 42566 km
RCS: 3.981 m2 (large)
Launch date: May 23, 1981
Source: International Telecommunications Satellite Organization (ITSO)
Launch site: AIR FORCE EASTERN TEST RANGE (AFETR)
Your satellite tracking list
Your tracking list is empty





NASA's NSSDC Master Catalog

Two Line Element Set (TLE):
1 12474U 81050A   16204.42360043 -.00000121  00000-0  00000+0 0  9991
2 12474  15.1976 355.8120 0008038 179.7953 111.4099  0.98855210101996
Source of the keplerian elements: AFSPC

N2YO: 857